User: anonymous
Location: El Centro
(32.7920°N, 115.5620°W)
Time: 05:14:05
(UTC-07:00)
Language:

Hamsat - Orbit

View from above orbital plane
View from above orbital plane
View from above satellite
View from above satellite

Ground track
Ground track

The orbit data is extracted from the following two-line orbital elements,

1 28650U 05017B   14273.76218048  .00001305  00000-0  15501-3 0  8686
2 28650 097.5644 273.4887 0025570 165.9826 194.2106 14.85839140508901
Epoch (UTC): 30 September 2014 18:17:32
Eccentricity: 0.0025570
inclination: 97.5644°
perigee height: 593 km
apogee height: 629 km
right ascension of ascending node: 273.4887°
argument of perigee: 165.9826°
revolutions per day: 14.85839140
mean anomaly at epoch: 194.2106°
orbit number at epoch: 50890

The dashed part of the orbit path shows where the satellite is in the earth's shadow,  

DLR